Change the Weather History Date:

Sunday, January 6, 2013

  Actual Average Record
Temperature  
Mean Temperature 39 °F -  
Max Temperature 41 °F 35 °F 62 °F (1958)
Min Temperature 37 °F 25 °F 2 °F (1965)
Degree Days  
Heating Degree Days 26    
Moisture  
Dew Point 37 °F    
Average Humidity 97    
Maximum Humidity 100    
Minimum Humidity 82    
Precipitation  
Precipitation 0.29 in - - ()
Sea Level Pressure  
Sea Level Pressure 29.72 in    
Wind  
Wind Speed 4 mph (SSE)    
Max Wind Speed 15 mph    
Max Gust Speed 23 mph    
Visibility 9 miles    
Events Rain    
Averages and records for this station are not official NWS values.
T = Trace of Precipitation, MM = Missing Value Source: NWS Daily Summary

Daily Weather History Graph

Daily Weather History Graph

Search for Another Location

Airport or City:

Trip Planner

Search our weather history database for the weather conditions in past years. The results will help you decide how hot, cold, wet, or windy it might be!

Date:

Astronomy

Jan. 06, 2013 Rise Set
Actual Time 8:11 AM AKST 3:34 PM AKST
Civil Twilight 7:26 AM AKST 4:19 PM AKST
Nautical Twilight 6:39 AM AKST 5:06 PM AKST
Astronomical Twilight 5:54 AM AKST 5:51 PM AKST
Moon 2:10 AM AKST 11:26 AM AKST
Length of Visible Light 8h 52m
Length of Day
7h 22m
Waning Crescent, 31% of the Moon is Illuminated
Jan 6
Waning Crescent
Jan 11
New
Jan 18
First Quarter
Jan 26
Full
Feb 3
Last Quarter

Hourly Weather History & Observations

Time (AKST) Temp. Windchill Dew Point Humidity Pressure Visibility Wind Dir Wind Speed Gust Speed Precip Events Conditions
12:53 AM 37.9 °F - 37.9 °F 100% 29.72 in 10.0 mi Calm Calm - N/A   Overcast
1:53 AM 37.9 °F 35.5 °F 37.0 °F 97% 29.74 in 10.0 mi South 3.5 mph - N/A   Overcast
2:34 AM 37.4 °F 34.9 °F 37.4 °F 100% 29.75 in 10.0 mi SSE 3.5 mph - N/A   Overcast
3:14 AM 37.4 °F - 37.4 °F 100% 29.76 in 10.0 mi Calm Calm - N/A   Overcast
3:53 AM 37.0 °F 33.3 °F 37.0 °F 100% 29.76 in 10.0 mi SE 4.6 mph - N/A   Overcast
4:10 AM 37.4 °F 34.9 °F 37.4 °F 100% 29.76 in 10.0 mi SSE 3.5 mph - N/A   Overcast
4:20 AM 37.4 °F 34.9 °F 37.4 °F 100% 29.76 in 10.0 mi South 3.5 mph - N/A   Overcast
4:53 AM 37.9 °F 35.5 °F 37.0 °F 97% 29.77 in 10.0 mi SSE 3.5 mph - N/A   Overcast
5:30 AM 37.4 °F - 37.4 °F 100% 29.76 in 10.0 mi Calm Calm - N/A   Overcast
5:53 AM 37.0 °F 34.5 °F 37.0 °F 100% 29.77 in 10.0 mi South 3.5 mph - N/A   Overcast
6:01 AM 37.4 °F - 37.4 °F 100% 29.77 in 10.0 mi Calm Calm - N/A   Overcast
6:14 AM 37.4 °F 34.9 °F 37.4 °F 100% 29.77 in 10.0 mi SSE 3.5 mph - N/A   Overcast
6:53 AM 37.0 °F - 37.0 °F 100% 29.77 in 9.0 mi Calm Calm - 0.00 in Rain Light Rain
7:53 AM 37.0 °F 34.5 °F 37.0 °F 100% 29.78 in 10.0 mi SE 3.5 mph - 0.00 in   Overcast
8:53 AM 37.9 °F 34.4 °F 37.0 °F 97% 29.80 in 10.0 mi South 4.6 mph - N/A   Overcast
9:53 AM 37.9 °F 32.7 °F 36.0 °F 93% 29.82 in 10.0 mi SSE 6.9 mph - N/A   Overcast
10:53 AM 39.0 °F 33.4 °F 37.0 °F 93% 29.81 in 10.0 mi SSE 8.1 mph - 0.01 in   Overcast
11:53 AM 39.0 °F 33.4 °F 37.9 °F 96% 29.79 in 10.0 mi SSE 8.1 mph - 0.00 in Rain Light Rain
12:53 PM 39.0 °F 31.4 °F 37.9 °F 96% 29.77 in 10.0 mi SE 12.7 mph - 0.00 in   Overcast
1:53 PM 39.0 °F 32.8 °F 37.9 °F 96% 29.76 in 10.0 mi SE 9.2 mph 20.7 mph 0.00 in Rain Light Rain
2:53 PM 39.9 °F 33.9 °F 37.0 °F 89% 29.76 in 10.0 mi SSE 9.2 mph 19.6 mph 0.01 in   Overcast
3:53 PM 39.9 °F 33.4 °F 37.0 °F 89% 29.71 in 10.0 mi SSE 10.4 mph 23.0 mph 0.00 in   Overcast
4:53 PM 41.0 °F 33.1 °F 36.0 °F 82% 29.68 in 10.0 mi SE 15.0 mph 23.0 mph 0.00 in   Overcast
6:53 PM 39.9 °F 35.1 °F 37.0 °F 89% 29.63 in 10.0 mi South 6.9 mph - 0.00 in   Overcast
7:53 PM 39.0 °F 32.8 °F 37.0 °F 93% 29.60 in 10.0 mi SSE 9.2 mph 18.4 mph 0.02 in Rain Light Rain
8:53 PM 37.0 °F 33.3 °F 37.0 °F 100% 29.57 in 9.0 mi South 4.6 mph - 0.08 in Rain Light Rain
9:53 PM 37.0 °F 33.3 °F 37.0 °F 100% 29.54 in 4.0 mi South 4.6 mph - 0.07 in Rain Light Rain
10:53 PM 37.0 °F 33.3 °F 37.0 °F 100% 29.52 in 3.0 mi Variable 4.6 mph - 0.07 in Rain Light Rain
11:53 PM 37.9 °F 34.4 °F 37.0 °F 97% 29.51 in 5.0 mi Variable 4.6 mph - 0.03 in Rain Light Rain